Location: Appeville
(49.3218°N, 1.3427°W)
Time: 21:16:02
(UTC+00:00)

PSLV R/B - Pass Details

Date: 08 December 2019
Orbit: 504 x 579 km, 97.8° (Epoch: 17 January)

Event Time Altitude Azimuth Distance (km) Brightness Sun altitude
Rises 05:28:42 0° 11° (NNE) 2,782 7.4 -21.5°
Reaches altitude 10° 05:30:51 10° 10° (N) 1,888 6.5 -21.2°
Maximum altitude 05:34:55 71° 287° (WNW) 614 3.7 -20.5°
Drops below altitude 10° 05:39:01 10° 203° (SSW) 1,891 6.4 -19.9°
Sets 05:41:10 0° 201° (SSW) 2,786 7.3 -19.5°
